Air Resources Laboratory banner image
Air Resources Laboratory web site National Oceanic and Atmospheric Administration (NOAA)

nh roundup


Office: GYX

ASUS41 KGYX 121605
RWRGYX
WEATHER ROUNDUP FOR MAINE AND NEW HAMPSHIRE
NATIONAL WEATHER SERVICE GRAY ME
1100 AM EST TUE DEC 12 2017

MEZ002-005-006-010-012-015-018-020-021-024-026-027-029-121700-
MAINE

CITY           SKY/WX    TMP DP  RH WIND       PRES   REMARKS
PORTLAND       LGT SNOW  22  19  89 VRB7      29.78F FOG
SANFORD        LGT SNOW  21  19  92 NE9       29.74F VSB 3/4
BAR HARBOR     LGT SNOW  27  25  93 N6        29.81F FOG
WISCASSET      CLOUDY    22  19  89 VRB3      29.81F
ROCKLAND       CLOUDY    30  28  92 N7        29.80F
FRYEBURG       HVY SNOW  18  16  92 N6        29.77F VSB 1/4
LEWISTONAUBURN LGT SNOW  17  14  88 N12       29.78F FOG     WCI   4
AUGUSTA        FLURRIES  16  13  88 N9        29.82F
WATERVILLE     LGT SNOW  16  12  86 N8        29.80S VSB 3/4
BANGOR         LGT SNOW  19  16  88 N6        29.83F FOG
GREENVILLE       N/A     13  11  92 E8        29.73F
MILLINOCKET    SNOW      11   7  84 NE8       29.89F VSB 1/2
HOULTON        LGT SNOW  13   8  81 E5        29.91F
PRESQUE ISLE   LGT SNOW   7   2  80 NE8       29.94F
FRENCHVILLE    FLURRIES   4  -1  80 E9        29.90F
CARIBOU        CLOUDY    10   3  73 E9        29.92F
$$

NHZ002-005-008-009-011-012-014-121700-
NEW HAMPSHIRE

CITY           SKY/WX    TMP DP  RH WIND       PRES   REMARKS
PORTSMOUTH     LGT SNOW  25  22  89 NE7       29.70F VSB 5/8
ROCHESTER      LGT SNOW  22  20  92 NE8       29.72F VSB 3/4
NASHUA         SNOW      30  28  92 CALM      29.68F VSB 1/2
MANCHESTER     SNOW      28  25  88 NE5       29.67F VSB 1/2
CONCORD        SNOW      26  23  88 E9        29.69F VSB 1/2
LACONIA        SNOW      21  18  88 NE10      29.70F VSB 1/2 WCI  10
PLYMOUTH       LGT SNOW  22  20  90 SE3       29.70F VSB 3/4
BERLIN         LGT SNOW  17  14  88 NW5       29.69F FOG
WHITEFIELD     LGT SNOW  27  22  81 NW7       29.62F
JAFFREY        LGT SNOW  31  30  96 CALM      29.61F VSB 3/4
KEENE          LGT SNOW  34  30  85 VRB3      29.60F FOG
LEBANON        LGT SNOW  27  23  85 NE8       29.60F FOG
MT WASHINGTON  SNOW      12  12 100 S52G64      N/A  VSB 0   WCI -14
$$

VTZ005-007-008-121700-
VERMONT

CITY           SKY/WX    TMP DP  RH WIND       PRES   REMARKS
ST JOHNSBURY     N/A     23  22  96 MISG      29.61F
MONTPELIER     SNOW      26  24  92 S15       29.60F VSB 1/2 WCI  14
BURLINGTON     LGT SNOW  28  24  85 CALM      29.55F VSB 1
$$

MAZ007-012-024-CTZ003-RIZ002-NYZ038-NYZ072-121700-
SOUTHERN NEW ENGLAND AND NY

CITY           SKY/WX    TMP DP  RH WIND       PRES   REMARKS
BOSTON         LGT RAIN  41  37  86 SE15      29.67F
WORCESTER      MIX PCPN  31  28  89 E7        29.60F FOG
NANTUCKET      CLOUDY    47  43  86 SE14      29.70F
PROVIDENCE     CLOUDY    44  41  89 SE3       29.63F
HARTFORD       LGT RAIN  33  32  96 N6        29.59F FOG
ALBANY         LGT SNOW  34  31  88 S10       29.54F FOG
NEW YORK CITY  CLOUDY    51  42  71 S14G26    29.52F
$$

ANZ081-ANZ082-ANZ150-NHZ014-MEZ023>029-121700-
COASTAL MARINE OBSERVATIONS

STATION/POSITION TIME  TEMP    WIND        PRES    WAVE
                       AIR SEA DIR/SP/G            HT/PER
                 (UTC) (F)     (DEG/KT/KT) (MB)    (FT/S)
MOUNT DESERT ROC 1600   42     130/ 24/ 26 1008.5F
MATINICUS ROCK   1500   41     150/ 19/ 21 1008.5F
ISLE OF SHOALS   1500   31      10/ 23/ 24 1007.2F
JEFFREYS LEDGE   1536      47                N/A     4/ 5
GEORGES BANK BUO 1450   52 51              1011.0    5/ 9
$$

.............KEY..............
   WCI - WIND CHILL
   TC  - TEMPERATURE IN CELSIUS
   VSB - VISIBILITY IN MILES
   HX  - HEAT INDEX
   FAIR- INDICATES FEW OR NO CLOUDS BELOW 12,000 FT, WITH NO
         SIGNIFICANT WEATHER AND/OR OBSTRUCTIONS TO VISIBILITY.






Office: BOX ASUS41 KBOX 121510 RWRBOX REGIONAL WEATHER ROUNDUP NATIONAL WEATHER SERVICE TAUNTON MA 1000 AM EST TUE DEC 12 2017 NOTE: "FAIR" INDICATES FEW OR NO CLOUDS BELOW 12,000 FEET WITH NO SIGNIFICANT WEATHER AND/OR OBSTRUCTIONS TO VISIBILITY. MAZALL-121600- EASTERN MASSACHUSETTS CITY SKY/WX TMP DP RH WIND PRES REMARKS BOSTON CLOUDY 41 35 79 SE16 29.73F BEVERLY CLOUDY 42 35 76 SE13G21 29.73F LAWRENCE FRZ RAIN 34 30 85 NE12 29.76F FOG WCI 25 BEDFORD LGT RAIN 33 31 92 NW5 29.71F WCI 29 BLUE HILL N/A 38 32 79 SE15 29.69F WCI 29 NORWOOD CLOUDY 41 34 76 SE6 29.72F MARSHFIELD CLOUDY 45 37 76 SE9G17 29.74F PLYMOUTH CLOUDY 44 36 73 SE7 29.74F TAUNTON CLOUDY 40 34 79 E6 29.71F NEW BEDFORD CLOUDY 44 41 89 SE14 29.71F $$ MAZALL-121600- CAPE COD AND THE ISLANDS CITY SKY/WX TMP DP RH WIND PRES REMARKS FALMOUTH CLOUDY 45 37 76 SE9 29.75F HYANNIS CLOUDY 46 38 73 SE10G17 29.74F CHATHAM CLOUDY 47 40 76 SE13G21 29.77F PROVINCETOWN CLOUDY 44 37 76 SE12 29.76F NANTUCKET CLOUDY 47 42 83 SE20 29.76F MARTHAS VNYRD CLOUDY 46 39 76 S16G24 29.73F $$ MAZALL-121600- CENTRAL AND WESTERN MASSACHUSETTS CITY SKY/WX TMP DP RH WIND PRES REMARKS WORCESTER LGT SNOW 29 26 89 NE6 29.65F VSB 1 WCI 23 FITCHBURG SNOW 32 31 96 CALM 29.72F VSB 1/2 ORANGE LGT SNOW 33 33 100 CALM 29.64F FOG SPRINGFIELD LGT RAIN 36 32 84 CALM 29.63F WESTFIELD LGT SNOW 30 29 96 N6 29.64F FOG WCI 24 NORTH ADAMS LGT SNOW 32 28 85 SE13G22 29.61F VSB 3/4 WCI 22 PITTSFIELD LGT SNOW 33 29 85 SE10 29.56F VSB 3/4 WCI 25 $$ RIZALL-121600- RHODE ISLAND CITY SKY/WX TMP DP RH WIND PRES REMARKS PROVIDENCE LGT RAIN 40 36 86 CALM 29.70F NEWPORT LGT RAIN 47 39 74 SE13 29.69F BLOCK ISLAND LGT RAIN 48 39 71 SE16 29.67 SMITHFIELD LGT RAIN 36 32 85 E6 29.69F WCI 31 WESTERLY CLOUDY 49 41 74 SE14G23 29.67F $$ CTZALL-121600- CONNECTICUT CITY SKY/WX TMP DP RH WIND PRES REMARKS BRADLEY INTL LGT RAIN 33 30 88 NW3 29.64F HARTFORD CLOUDY 40 35 83 VRB7 29.63F BRIDGEPORT LGT RAIN 48 41 76 S13 29.60F DANBURY LGT RAIN 40 38 93 SE3 29.60F FOG GROTON CLOUDY 49 39 68 S21 29.65F NEW HAVEN LGT RAIN 46 40 79 SE12 29.62F FOG CHESTER LGT RAIN 43 37 81 VRB6 29.62F MERIDEN LGT RAIN 34 33 96 CALM 29.62F FOG WILLIMANTIC LGT RAIN 38 33 82 CALM 29.66F OXFORD RAIN 38 37 97 S6 29.60F FOG $$ MEZ002-015-021-024-NHZ003-005-008-011-012-014-VTZ005-008-121600- NORTHERN NEW ENGLAND CITY SKY/WX TMP DP RH WIND PRES REMARKS PORTLAND ME CLOUDY 21 18 88 N7 29.83F WCI 12 BANGOR ME LGT SNOW 18 13 80 NE10 29.86F WCI 6 CONCORD NH SNOW 26 22 84 E6 29.73F VSB 1/2 WCI 19 MANCHESTER NH SNOW 27 25 92 E5 29.72F VSB 1/2 WCI 22 NASHUA NH SNOW 30 28 92 NE3 29.74F VSB 1/2 PORTSMOUTH NH LGT SNOW 25 21 86 N7 29.76F FOG WCI 17 JAFFREY NH SNOW 30 28 92 VRB7 29.66F VSB 1/2 WCI 23 KEENE NH LGT SNOW 32 30 92 VRB3 29.66F VSB 1 BURLINGTON VT LGT SNOW 26 23 88 CALM 29.59F VSB 3/4 MT. WASHINGTON HVY SNOW 10 10 100 S47G53 N/A VSB 0 WCI -16 $$ NYZ052-076-121600- EASTERN NEW YORK CITY SKY/WX TMP DP RH WIND PRES REMARKS ALBANY LGT SNOW 33 31 92 S10 29.57F VSB 1 WCI 25 NEW YORK CITY CLOUDY 51 40 65 S12G23 29.57F $$ ANZALL-121600- MARINE OBSERVATIONS STATION/POSITION TIME TEMP WIND PRES VSBY WAVE AIR SEA DIR/SP/G HT/PER (UTC) (F) (DEG/KT/KT) (MB) (MI) (FT/S) BOSTON BUOY 1450 45 48 130/ 19/ 23 1005.8F 4/ 4 BUZZARDS BAY 1400 47 160/ 18/ 19 1007.6F NANTUCKET SOUND 1450 45 45 140/ 16/ 19 1007.2F 2/ 3 MASS BAY-STELLWA 1404 44 47 150/ 16/ 19 1007.7F 4/ 4 ISLE OF SHOALS 1400 34 30/ 18/ 22 1008.0F S OF BLOCK IS 1443 53 N/A 4/ 9 $$ ......................KEY......................... SKY/WX - SKY CONDITION/PRESENT WEATHER TMP - TEMPERATURE IN FAHRENHEIT DWPT - DEWPOINT IN FAHRENHEIT RH - RELATIVE HUMIDITY IN PERCENT WIND - DIRECTION AND SPEED IN MPH PRES - MEAN SEA LEVEL PRESSURE IN INCHES OF HG WCI - WIND CHILL INDEX VSB - VISIBILITY IN MILES HX - HEAT INDEX TC - TEMPERATURE IN CELSIUS VRB - VARIABLE WIND DIRECTION N/A - NOT AVAILABLE